Location: Mary A Oil Field
(38.5606°N, 98.9545°W)
Time: 12:21:44
(UTC+00:00)

Cosmos 1812 Rocket - Pass Details

Date: 20 January 2020
Orbit: 606 x 631 km, 82.5° (Epoch: 20 February)

Event Time Altitude Azimuth Distance (km) Brightness Sun altitude
Rises 00:09:33 0° 2° (N) 2,925 6.8 -5.6°
Reaches altitude 10° 00:11:59 10° 12° (NNE) 2,015 5.9 -6.1°
Maximum altitude 00:16:02 33° 77° (ENE) 1,056 4.2 -6.8°
Drops below altitude 10° 00:20:05 10° 142° (SE) 2,006 6.0 -7.6°
Sets 00:22:29 0° 152° (SSE) 2,909 6.9 -8.0°
